Date,TemperatureHighF,TemperatureAvgF,TemperatureLowF,DewpointHighF,DewpointAvgF,DewpointLowF,HumidityHigh,HumidityAvg,HumidityLow,PressureMaxIn,PressureMinIn,WindSpeedMaxMPH,WindSpeedAvgMPH,GustSpeedMaxMPH,PrecipitationSumIn
2012-9-1,75.7,72.9,71.1,72.0,69.0,66.8,92,88,86,29.92,29.83,23,14,25,0.44
2012-9-2,83.1,78.3,73.0,75.2,72.6,68.4,92,83,75,29.87,29.81,20,10,20,0.00
2012-9-3,92.1,81.5,68.9,77.2,71.8,65.8,93,74,54,29.89,29.82,15,3,15,0.00
2012-9-4,95.7,83.1,66.6,76.7,71.0,60.9,89,69,46,29.92,29.77,19,3,19,0.46
2012-9-5,90.0,76.7,64.9,70.8,65.6,60.1,88,70,47,29.93,29.72,23,6,23,0.15
2012-9-6,92.0,79.5,66.6,70.9,62.4,56.0,83,59,34,29.91,29.79,9,2,2,0.00
2012-9-7,83.1,70.0,62.2,69.2,61.6,54.2,89,75,58,29.88,29.72,11,3,15,0.63
2012-9-8,77.5,68.1,58.1,57.0,53.0,50.2,80,60,42,29.89,29.77,20,8,21,0.02
2012-9-9,76.8,66.2,57.4,58.1,51.5,44.2,80,61,35,30.12,29.80,13,3,13,0.00
2012-9-10,80.2,66.9,49.8,58.2,49.9,42.2,76,57,35,30.18,30.05,12,3,14,0.00
2012-9-11,84.7,71.6,54.7,59.1,54.7,46.6,78,57,38,30.12,30.00,19,7,21,0.00
2012-9-12,87.4,73.7,62.2,60.7,57.0,54.0,76,58,38,30.10,30.03,13,5,16,0.00
2012-9-13,75.9,66.0,58.5,58.4,54.3,49.7,78,67,49,30.29,30.09,14,3,14,0.59
2012-9-14,79.5,65.4,52.3,56.6,49.4,44.3,82,59,31,30.31,30.23,12,2,12,0.22
2012-9-15,85.1,67.3,50.0,58.2,49.1,42.4,76,55,30,30.27,30.09,10,2,10,0.00
2012-9-16,81.3,67.0,50.9,57.3,49.4,42.0,75,56,33,30.10,29.93,14,3,14,0.00
2012-9-17,81.7,66.9,54.3,64.8,55.8,46.6,82,68,49,29.93,29.70,17,4,23,0.59
2012-9-18,69.1,60.7,48.2,53.1,44.2,37.4,79,57,34,30.00,29.78,19,6,20,0.00
2012-9-19,74.8,61.0,42.8,49.5,42.4,34.0,75,53,32,30.02,29.78,28,11,30,0.00
2012-9-20,77.7,64.5,49.8,53.4,43.8,36.3,73,50,26,29.90,29.79,18,6,21,0.00
2012-9-21,64.6,55.0,48.6,52.1,46.3,39.6,88,73,57,29.90,29.74,22,4,22,0.06
2012-9-22,63.5,55.1,45.9,47.7,42.5,37.0,91,65,45,30.13,29.77,26,8,26,0.10
2012-9-23,68.0,53.7,37.9,46.2,36.4,29.2,79,55,32,30.22,30.13,15,4,17,0.00
2012-9-24,72.3,56.0,35.4,41.9,35.1,27.0,77,49,26,30.18,29.87,17,6,21,0.00
2012-9-25,78.8,65.4,52.0,62.9,52.7,40.5,84,64,46,29.87,29.77,13,4,17,0.00
2012-9-26,74.7,63.3,53.4,59.5,53.6,45.4,90,72,50,30.12,29.81,15,5,17,0.00
2012-9-27,73.8,60.0,47.4,52.2,45.5,40.2,78,61,42,30.16,30.07,12,2,16,0.00
2012-9-28,73.4,58.6,44.4,53.1,45.6,38.2,80,63,47,30.13,30.04,16,4,22,0.00
2012-9-29,83.1,63.6,43.5,53.2,44.6,37.1,81,54,28,30.07,29.87,14,4,17,0.00
2012-9-30,70.7,59.5,46.8,54.4,45.1,39.3,80,60,40,29.93,29.86,18,5,23,0.00
2012-10-1,70.1,57.9,47.1,51.1,44.2,39.6,81,62,42,29.89,29.76,10,2,14,0.00
2012-10-2,74.9,62.7,50.5,55.3,47.0,43.2,80,59,35,29.86,29.76,23,5,25,0.00
2012-10-3,69.4,63.2,59.7,60.2,55.5,47.3,87,76,62,29.98,29.83,7,2,9,0.02
2012-10-4,77.4,61.5,48.0,61.1,52.6,42.8,87,74,52,30.08,29.94,23,8,27,0.10
2012-10-5,51.8,47.0,37.6,42.6,36.2,28.4,83,66,52,30.13,30.03,13,6,21,0.00
2012-10-6,55.9,45.1,31.8,37.0,30.7,25.5,80,58,43,30.13,30.03,16,7,16,0.00
2012-10-7,55.2,45.9,35.1,33.7,28.8,22.8,66,52,32,30.14,30.06,15,5,15,0.00
2012-10-8,61.9,48.6,33.4,35.6,30.7,22.4,77,52,32,30.09,29.93,27,10,28,0.19
2012-10-9,67.3,54.5,45.0,43.2,39.6,34.5,85,59,37,29.94,29.75,33,13,33,0.54
2012-10-10,55.8,46.1,36.0,41.5,33.8,27.3,87,64,44,30.12,29.88,27,9,28,0.02
2012-10-11,67.6,52.0,36.7,40.7,35.6,27.3,81,56,34,30.20,29.99,30,10,30,0.00
2012-10-12,58.3,49.8,38.5,40.0,33.6,27.4,74,55,38,30.36,30.17,20,6,21,0.00
2012-10-13,66.6,56.5,45.5,63.8,51.3,32.6,95,83,57,30.18,29.72,22,10,22,0.30
2012-10-14,70.2,61.3,49.6,65.2,57.9,45.5,94,89,79,29.76,29.37,44,14,44,1.19
2012-10-15,64.4,53.6,43.7,47.1,42.9,37.7,88,69,46,29.89,29.76,20,7,21,0.00
2012-10-16,71.8,57.7,40.6,55.4,47.3,35.6,85,70,52,29.89,29.48,28,10,29,0.02
2012-10-17,68.0,61.4,54.0,60.0,54.2,50.2,94,78,64,29.50,29.21,31,14,31,1.33
2012-10-18,54.0,48.6,44.8,50.8,42.6,37.9,89,80,57,29.44,29.30,27,12,27,0.20
2012-10-19,54.7,48.5,42.8,49.3,44.5,38.9,91,86,80,29.61,29.36,18,6,18,0.12
2012-10-20,58.6,46.9,39.6,50.4,41.8,37.0,94,83,64,29.88,29.61,16,6,16,0.02
2012-10-21,69.8,54.5,37.8,55.0,46.5,34.5,91,75,57,29.94,29.86,20,6,21,0.00
2012-10-22,65.7,59.9,52.0,62.5,57.1,47.8,95,90,81,29.90,29.81,19,5,20,0.21
2012-10-23,71.2,65.4,60.8,66.6,62.5,59.4,96,90,77,29.86,29.79,16,5,16,0.03
2012-10-24,79.3,70.2,62.1,67.8,63.5,59.1,91,80,66,29.87,29.77,23,10,23,0.00
2012-10-25,75.9,63.9,46.0,65.4,57.3,39.2,88,79,68,30.02,29.62,35,17,35,0.31
2012-10-26,53.1,46.6,39.0,39.2,34.7,29.9,79,64,48,30.26,30.02,28,7,28,0.00
2012-10-27,50.7,41.9,33.4,33.7,29.8,27.1,80,63,45,30.27,30.16,17,3,17,0.00
2012-10-28,51.8,43.0,36.3,36.6,31.2,27.1,75,64,49,30.21,30.16,28,6,28,0.00
2012-10-29,54.9,44.3,34.3,36.8,30.3,26.3,81,60,37,30.23,30.01,20,5,21,0.00
2012-10-30,50.0,42.4,37.4,30.7,28.9,26.3,73,60,45,30.01,29.74,30,13,30,0.10
2012-10-31,52.2,41.3,32.4,35.1,27.9,21.8,76,59,46,29.82,29.75,26,12,26,0.00
2012-11-1,55.9,42.8,29.8,34.6,28.0,19.8,73,57,41,29.85,29.75,14,5,14,0.00
2012-11-2,52.5,42.6,33.3,34.7,30.2,26.6,80,63,45,30.07,29.85,14,3,14,0.00
2012-11-3,47.7,41.1,36.0,38.0,34.2,30.0,84,76,65,30.14,30.05,12,4,13,0.00
2012-11-4,53.2,41.5,31.6,37.3,31.3,23.6,86,68,50,30.17,30.09,13,2,13,0.00
2012-11-5,45.9,36.1,26.8,37.3,28.4,21.5,86,74,62,30.12,30.04,14,3,14,0.00
2012-11-6,42.4,37.0,26.2,39.8,32.9,20.3,91,85,75,30.04,29.79,12,3,13,0.15
2012-11-7,47.7,44.0,41.0,42.4,40.5,39.2,95,88,81,30.09,29.80,11,3,12,0.00
2012-11-8,49.3,42.9,36.7,39.9,37.2,32.6,88,81,68,30.14,30.00,17,5,17,0.01
2012-11-9,57.9,47.1,35.4,48.3,41.3,31.4,91,81,70,30.02,29.88,14,5,14,0.00
2012-11-10,67.8,59.0,50.2,60.4,52.3,46.4,92,79,65,29.90,29.76,33,10,33,0.24
2012-11-11,69.3,58.3,38.8,57.7,50.6,34.7,92,76,62,29.91,29.65,47,19,47,1.16
2012-11-12,38.8,34.5,28.4,35.0,27.0,23.0,86,74,64,30.27,29.89,30,15,30,0.01
2012-11-13,45.0,36.3,25.7,30.5,25.7,19.6,81,66,52,30.43,30.27,14,4,15,0.00
2012-11-14,47.7,37.2,29.5,33.5,28.3,23.8,84,71,53,30.42,30.29,16,5,16,0.00
2012-11-15,48.9,38.2,30.0,35.0,29.4,24.6,84,71,53,30.31,30.23,10,3,10,0.00
2012-11-16,55.8,42.4,30.2,38.3,31.3,24.3,81,66,47,30.38,30.28,11,3,12,0.00
2012-11-17,55.8,42.6,30.4,39.6,32.1,24.5,81,67,50,30.46,30.34,13,4,13,0.00
2012-11-18,57.6,44.5,33.4,41.3,34.5,27.9,82,68,49,30.35,30.22,11,5,12,0.00
2012-11-19,57.4,48.2,37.8,44.1,39.6,31.5,81,72,58,30.22,30.02,14,5,15,0.00
2012-11-20,63.0,51.7,38.8,51.8,44.1,33.5,83,76,63,30.10,29.99,11,2,12,0.00
2012-11-21,55.0,43.2,36.1,49.1,39.8,32.5,94,88,78,30.16,30.01,13,4,14,0.01
2012-11-22,63.9,52.3,41.9,51.8,45.9,36.2,93,80,58,30.01,29.72,36,14,37,0.16
2012-11-23,41.7,33.9,29.3,36.3,25.5,20.4,84,71,62,30.16,29.86,40,17,40,0.10
2012-11-24,36.1,31.5,27.9,24.7,21.8,19.0,72,67,58,30.19,29.90,19,7,20,0.00
2012-11-25,48.2,39.0,29.3,33.2,28.2,22.4,78,66,53,30.01,29.77,15,6,15,0.00
2012-11-26,38.7,33.0,24.8,26.8,22.8,15.9,76,66,53,30.30,30.00,12,3,12,0.00
2012-11-27,38.7,29.1,18.3,21.4,16.1,10.3,73,59,42,30.35,30.17,12,4,12,0.00
2012-11-28,47.7,37.2,24.8,30.9,23.7,16.4,74,59,44,30.30,30.17,14,5,14,0.00
2012-11-29,53.2,40.4,29.7,37.0,30.8,22.7,80,69,54,30.18,29.98,15,6,15,0.00
2012-11-30,55.2,44.6,37.0,40.6,35.3,30.5,87,71,54,30.05,29.95,14,4,14,0.00
2012-12-1,59.4,48.3,32.4,53.2,43.3,28.2,89,83,78,30.03,29.80,27,8,28,0.01
2012-12-2,69.3,57.8,44.4,58.9,51.5,42.1,92,80,65,29.97,29.79,22,6,22,0.00
2012-12-3,70.9,60.7,44.6,62.8,55.9,42.4,97,85,70,29.94,29.68,35,15,35,0.13
2012-12-4,59.7,51.0,39.9,51.1,39.5,29.8,80,66,46,30.20,29.84,21,9,21,0.00
2012-12-5,43.7,35.9,28.0,30.6,25.8,20.5,82,67,49,30.34,30.11,15,5,15,0.00
2012-12-6,48.6,41.7,34.0,41.2,35.5,29.1,86,79,68,30.11,29.82,15,8,15,0.00
2012-12-7,46.8,43.9,41.0,41.6,39.7,37.5,90,85,79,29.87,29.79,16,5,16,0.07
2012-12-8,43.5,39.2,37.0,38.3,35.3,33.6,91,86,78,29.99,29.76,18,5,18,0.11
2012-12-9,47.5,40.0,36.7,44.5,36.9,32.8,95,88,83,29.97,29.66,28,10,29,0.08
2012-12-10,36.3,31.9,29.5,32.9,28.4,25.6,89,87,85,29.88,29.68,26,13,26,0.00
2012-12-11,36.5,29.8,22.6,26.0,23.3,18.6,87,77,61,30.07,29.88,22,8,22,0.00
2012-12-12,46.4,34.7,24.4,31.7,26.6,20.0,84,73,52,30.20,30.07,22,9,22,0.00
2012-12-13,49.1,39.0,31.3,32.7,29.3,25.5,81,69,46,30.18,30.01,28,12,28,0.00
2012-12-14,51.3,39.6,28.9,36.3,31.2,23.2,83,72,53,30.11,29.91,13,4,13,0.00
2012-12-15,51.4,46.1,40.8,48.9,42.9,35.4,95,89,78,29.92,29.48,31,12,31,0.33
2012-12-16,49.8,43.5,39.0,46.7,40.1,35.1,93,88,84,29.67,29.51,21,10,22,0.01
2012-12-17,39.9,38.3,35.4,35.8,33.8,30.8,86,84,81,29.67,29.59,10,3,10,0.00
2012-12-18,43.7,38.2,33.3,40.4,34.3,28.5,89,86,82,29.77,29.49,29,9,29,0.00
2012-12-19,40.3,37.9,35.2,38.2,34.0,30.9,93,86,81,29.96,29.65,25,8,25,0.13
2012-12-20,52.2,41.5,32.7,49.0,39.4,29.0,96,92,86,29.66,28.95,44,21,44,1.76
2012-12-21,31.3,26.6,20.8,24.3,20.0,15.1,82,76,69,30.12,29.68,38,20,38,2.03
2012-12-22,34.7,25.6,16.2,26.3,19.4,11.4,87,77,66,30.14,29.85,9,5,9,0.00
2012-12-23,35.4,28.2,19.9,30.2,24.0,15.9,90,84,74,29.94,29.82,12,4,14,0.02
2012-12-24,33.3,30.9,28.6,29.9,27.1,23.6,89,86,81,30.02,29.77,13,5,14,0.00
2012-12-25,31.6,27.4,22.3,26.1,22.2,17.3,84,81,77,30.22,30.02,14,5,15,0.00
2012-12-26,34.3,30.6,28.0,28.0,25.1,22.4,86,80,69,30.09,29.89,21,8,25,0.00
2012-12-27,35.2,30.3,27.7,31.5,25.4,22.0,87,82,79,30.10,30.01,13,4,14,0.00
2012-12-28,33.4,32.2,29.8,31.2,28.9,26.4,92,88,82,30.02,29.79,16,5,17,0.00
2012-12-29,33.8,28.8,18.9,31.5,24.3,13.5,91,83,75,30.15,29.78,24,13,25,0.00
2012-12-30,35.8,26.9,15.4,28.7,21.0,11.2,86,78,66,30.25,29.98,19,8,21,0.00
2012-12-31,35.6,31.1,23.0,28.8,24.3,15.1,80,76,72,30.05,29.93,17,10,21,0.00
2013-1-1,27.9,20.2,11.8,15.1,10.2,4.2,75,65,51,30.15,30.03,14,5,14,0.00